Ketchikan, AK

8:25 AM AKST on November 15, 2018 (GMT -0900)
Ketchikan International

Weather History for PAKT - August, 2018

Change the Weather History Date:

Monday, August 13, 2018

  Actual Average Record
Temperature  
Mean Temperature 64 °F -  
Max Temperature 70 °F 66 °F 83 °F (1977)
Min Temperature 59 °F 52 °F 45 °F (1959)
Degree Days  
Heating Degree Days 1    
Growing Degree Days 14 (Base 50)    
Moisture  
Dew Point 55 °F    
Average Humidity 76    
Maximum Humidity 86    
Minimum Humidity 56    
Precipitation  
Precipitation 0.00 in - - ()
Sea Level Pressure  
Sea Level Pressure 30.17 in    
Wind  
Wind Speed 8 mph (North)    
Max Wind Speed 13 mph    
Max Gust Speed -    
Visibility 10 miles    
Events      
Averages and records for this station are not official NWS values.
T = Trace of Precipitation, MM = Missing Value Source: NWS Daily Summary

Daily Weather History Graph

Daily Weather History Graph

Search for Another Location

Airport or City:

Astronomy

Aug. 13, 2018 Rise Set
Actual Time 5:16 AM AKDT 8:25 PM AKDT
Civil Twilight 4:33 AM AKDT 9:08 PM AKDT
Nautical Twilight 3:35 AM AKDT 10:05 PM AKDT
Astronomical Twilight 2:12 AM AKDT 11:26 PM AKDT
Moon 8:19 AM AKDT (8/13) 9:45 PM AKDT (8/13)
Length of Visible Light 16h 34m
Length of Day
15h 08m
Waxing Crescent, 8% of the Moon is Illuminated
Aug 13
Waxing Crescent
Aug 17
First Quarter
Aug 26
Full
Sep 2
Last Quarter
Sep 9
New

Hourly Weather History & Observations

Time (AKDT) Temp. Dew Point Humidity Pressure Visibility Wind Dir Wind Speed Gust Speed Precip Events Conditions
12:53 AM 60.1 °F 55.0 °F 83% 30.25 in 10.0 mi West 4.6 mph - N/A   Clear
1:53 AM 60.1 °F 55.9 °F 86% 30.24 in 10.0 mi NNW 6.9 mph - N/A   Clear
2:53 AM 61.0 °F 55.9 °F 83% 30.24 in 10.0 mi North 11.5 mph - N/A   Clear
3:53 AM 60.1 °F 55.9 °F 86% 30.25 in 10.0 mi North 10.4 mph - N/A   Clear
4:53 AM 60.1 °F 55.9 °F 86% 30.24 in 10.0 mi NNW 6.9 mph - N/A   Mostly Cloudy
5:53 AM 60.1 °F 55.0 °F 83% 30.24 in 10.0 mi NNW 11.5 mph - N/A   Overcast
6:03 AM 60.8 °F 55.4 °F 82% 30.24 in 10.0 mi North 10.4 mph - N/A   Scattered Clouds
6:53 AM 60.8 °F 55.4 °F 82% 30.24 in 10.0 mi NNW 9.2 mph - N/A   Partly Cloudy
7:53 AM 62.6 °F 55.4 °F 77% 30.24 in 10.0 mi NW 10.4 mph - N/A   Partly Cloudy
8:53 AM 62.6 °F 53.6 °F 72% 30.22 in 10.0 mi NNW 10.4 mph - N/A   Partly Cloudy
9:53 AM 62.6 °F 53.6 °F 72% 30.21 in 10.0 mi NW 6.9 mph - N/A   Clear
10:53 AM 66.2 °F 55.4 °F 68% 30.20 in 10.0 mi NNW 8.1 mph - N/A   Clear
11:53 AM 64.4 °F 55.4 °F 73% 30.19 in 10.0 mi NW 11.5 mph - N/A   Scattered Clouds
12:53 PM 68.0 °F 55.4 °F 64% 30.21 in 10.0 mi NNW 11.5 mph - N/A   Mostly Cloudy
1:53 PM 69.8 °F 55.4 °F 60% 30.18 in 10.0 mi ESE 8.1 mph - N/A   Clear
2:53 PM 69.8 °F 53.6 °F 56% 30.17 in 10.0 mi ESE 9.2 mph - N/A   Clear
3:53 PM 66.9 °F 55.0 °F 66% 30.17 in 10.0 mi NNW 10.4 mph - N/A   Scattered Clouds
4:53 PM 66.0 °F 54.0 °F 65% 30.15 in 10.0 mi NNW 12.7 mph - N/A   Mostly Cloudy
5:53 PM 64.0 °F 54.0 °F 70% 30.15 in 10.0 mi NNW 12.7 mph - N/A   Mostly Cloudy
6:53 PM 63.0 °F 52.0 °F 67% 30.12 in 10.0 mi NNW 8.1 mph - N/A   Mostly Cloudy
7:53 PM 62.1 °F 53.1 °F 72% 30.11 in 10.0 mi WNW 3.5 mph - N/A   Mostly Cloudy
8:51 PM 60.8 °F 53.6 °F 77% 30.09 in 10.0 mi SE 5.8 mph - N/A   Mostly Cloudy
8:53 PM 61.0 °F 53.1 °F 75% 30.09 in 10.0 mi SE 6.9 mph - N/A   Mostly Cloudy
9:11 PM 61.0 °F 53.1 °F 75% 30.09 in 10.0 mi SE 8.1 mph - N/A   Mostly Cloudy
9:53 PM 60.1 °F 55.0 °F 83% 30.10 in 10.0 mi SSE 5.8 mph - N/A   Overcast
10:20 PM 61.0 °F 54.0 °F 78% 30.08 in 10.0 mi SE 10.4 mph - N/A   Overcast
10:53 PM 59.0 °F 54.0 °F 83% 30.08 in 10.0 mi SE 6.9 mph - N/A   Mostly Cloudy
11:04 PM 60.1 °F 54.0 °F 80% 30.08 in 10.0 mi ESE 11.5 mph - N/A   Mostly Cloudy
11:15 PM 59.0 °F 54.0 °F 83% 30.07 in 10.0 mi SE 11.5 mph - N/A   Mostly Cloudy
11:53 PM 59.0 °F 54.0 °F 83% 30.09 in 10.0 mi SE 9.2 mph - N/A   Overcast